Content
SEND FEEDBACK

Daily
Averages
Monthly
Summary
United States of America

MEYERS, CALIFORNIA


Home > North America > United States > California
Elevation: 6470 feet     Latitude: 38 49N     Longitude: 120 01W

WEATHER
 
SELECT A DAY
Number of Records: 176,955;   Date Range: 1/1/95 - 10/19/14
 
SHARE

PRINT THIS DATA

[ ← Previous Day ]
WEATHER ALMANAC - FEBRUARY 21, 2013
[ Next Day → ]
[ °C ]   °F
Weather ElementAverageHighLow
Temperature26 °F37 °F (2:53 pm)21 °F (1:53 am)
Dewpoint13.7 °F19.4 °F (5:21 am)6.1 °F (1:53 pm)
Humidity62.7 %86 % (5:34 am)29 % (1:53 pm)
Barometer30.00 in30.16 in (10:53 pm)29.89 in (1:53 am)
Wind Speed2.8 mph11.5 mph (9:53 am)
Wind Gust17.3 mph (9:53 am)
Weather ElementAverage
Visibility6.8 mi
Wind DirectionNE (45 °)

Weather ElementTotal
Precipitation0.39 in
Heating Degree Days36 (Base 65)
Averaged from 34 records on February 21, 2013
WEATHER CONDITIONS BREAKOUT
WIND DIRECTION BREAKOUT
WEATHER BY HOUR - FEBRUARY 21, 2013
[ °C ]   °F
Local TimeTemperatureDewpointHumidityBarometerVisibilityWind DirectionWind SpeedGust SpeedPrecipitationEventsConditions
1:53 AM21.0 °F14.0 °F74 %29.89 in10.0 miCalmMostly Cloudy
2:53 AM23.0 °F16.0 °F74 %29.91 in10.0 miCalmOvercast
3:53 AM24.1 °F17.1 °F75 %29.90 in8.0 miSouth (170°)3.5 mph0.00 inSnowLight Snow
4:53 AM26.1 °F16.0 °F66 %29.92 in10.0 miCalm0.00 inOvercast
5:04 AM26.6 °F17.6 °F69 %29.91 in3.0 miNE (50°)3.5 mph0.00 inSnowLight Snow
5:07 AM24.8 °F17.6 °F74 %29.92 in1.5 miNNE (30°)5.8 mph0.00 inSnowLight Snow
5:11 AM24.8 °F17.6 °F74 %29.92 in0.8 miEast (80°)6.9 mph0.00 inSnowLight Snow
5:21 AM24.8 °F19.4 °F80 %29.92 in0.2 miVariable5.8 mph0.02 inSnowHeavy Snow
5:34 AM23.0 °F19.4 °F86 %29.93 in0.2 miSE (140°)3.5 mph0.08 inFog-SnowSnow
5:47 AM24.8 °F17.6 °F74 %29.93 in1.2 miCalm0.09 inSnowLight Snow
5:53 AM24.1 °F18.0 °F77 %29.98 in1.5 miSouth (180°)3.5 mph0.10 inSnowLight Snow
6:06 AM23.0 °F17.6 °F80 %29.94 in0.5 miCalm0.00 inSnowSnow
6:13 AM23.0 °F17.6 °F80 %29.95 in0.5 miCalm0.01 inSnowSnow
6:24 AM23.0 °F17.6 °F80 %29.95 in0.8 miCalm0.01 inSnowLight Snow
6:33 AM23.0 °F17.6 °F80 %29.95 in1.8 miCalm0.02 inSnowLight Snow
6:38 AM23.0 °F17.6 °F80 %29.94 in3.0 miCalm0.02 inSnowLight Snow
6:48 AM21.2 °F15.8 °F80 %29.93 in8.0 miSSW (200°)5.8 mph0.02 inSnowLight Snow
6:53 AM21.9 °F16.0 °F78 %30.00 in9.0 miCalm0.02 inMostly Cloudy
7:53 AM24.1 °F10.0 °F55 %30.01 in10.0 miVariable4.6 mphClear
8:53 AM25.0 °F10.0 °F53 %30.06 in10.0 miSouth (170°)4.6 mphClear
9:53 AM28.9 °F10.9 °F47 %30.07 in10.0 miNNE (30°)11.5 mph17.3 mphClear
10:53 AM30.0 °F10.0 °F43 %30.09 in10.0 miENE (70°)5.8 mphPartly Cloudy
11:53 AM30.9 °F9.0 °F40 %30.08 in10.0 miCalmClear
12:53 PM34.0 °F10.9 °F38 %30.07 in10.0 miVariable3.5 mphClear
1:53 PM36.0 °F6.1 °F29 %30.02 in10.0 miNNE (20°)8.1 mphClear
2:53 PM37.0 °F10.0 °F33 %30.03 in10.0 miVariable4.6 mphClear
3:53 PM36.0 °F7.0 °F30 %30.02 in10.0 miCalmClear
4:53 PM34.0 °F6.1 °F31 %30.04 in10.0 miNorth (10°)3.5 mphClear
5:53 PM28.9 °F12.0 °F49 %30.06 in10.0 miCalmClear
7:53 PM25.0 °F12.9 °F60 %30.12 in10.0 miCalmClear
8:53 PM24.1 °F10.9 °F57 %30.13 in10.0 miCalmClear
9:53 PM21.9 °F10.0 °F60 %30.14 in10.0 miSouth (180°)4.6 mphClear
10:53 PM21.0 °F10.0 °F63 %30.16 in10.0 miCalmClear
11:53 PM21.0 °F10.0 °F63 %30.15 in10.0 miSSW (200°)4.6 mphClear
Hourly data recorded from KTVL, located miles away from Meyers, California







STORIES FROM OUR PARTNERS